Flag for U.S.A. Weather past 2 weeks in Livonia, Michigan, U.S.A.

Now
57 °F

Light rain. Overcast.


Feels Like: 55 °F
Forecast: 48 / 65 °F
Wind: 9 mph from Southwest

Location: Detroit Metropolitan Wayne County Airport

Current Time: Sep 15, 2014 at 9:43:23 PM

Latest Report: Sep 15, 2014 at 8:53 PM


Visibility: 10 mi

Pressure: 30.09 "Hg

Humidity: 87%

Dew point: 53 °F

Location of LivoniaLocation

Historic Weather in Livonia — Graph

°F

Livonia temperature yesterday

Maximum temperature yesterday: 63 °F (at 3:53 PM)
Minimum temperature yesterday: 43 °F (at 4:53 AM)
Average temperature yesterday: 54 °F

Past Weeks' High & Low Weather Summary

 TemperatureHumidityPressure
High92 °F (Sep 5, 4:53 PM)97% (Sep 1, 7:53 AM)30.37 "Hg (Sep 1, 7:53 AM)
Low43 °F (Sep 14, 4:53 AM)40% (Sep 7, 3:53 PM)29.60 "Hg (Sep 10, 7:53 PM)
Average66 °F75%30.05 "Hg
* Reported Aug 31 7:53 PM — Sep 15 7:53 PM, Livonia, Weather by CustomWeather, © 2014

Note: Actual official high and low records may vary slightly from our data, if they occured in-between our weather recording intervals... More about our weather records

Advertising

Livonia weather history for previous 24 hours

 ConditionsComfort  
Time TempWeatherWind HumidityBarometerVisibility
7:53 PM
Sep 15
58 °FMore clouds than sun.7 mph87%30.09 "Hg10 mi
6:53 PM59 °FOvercast.5 mph75%30.08 "Hg10 mi
5:53 PM61 °FMore clouds than sun.6 mph67%30.07 "Hg10 mi
4:53 PM60 °FOvercast.5 mph72%30.09 "Hg10 mi
3:53 PM58 °FOvercast.8 mph75%30.12 "Hg10 mi
2:53 PM59 °FOvercast.8 mph69%30.13 "Hg10 mi
1:53 PM58 °FMostly cloudy.8 mph72%30.15 "Hg10 mi
12:53 PM58 °FOvercast.7 mph72%30.16 "Hg10 mi
11:53 AM57 °FLight rain. More clouds than sun.7 mph74%30.18 "Hg10 mi
10:53 AM54 °FCloudy.3 mph82%30.16 "Hg10 mi
9:53 AM54 °FMostly cloudy.8 mph77%30.21 "Hg10 mi
8:53 AM53 °FPartly sunny.3 mph83%30.19 "Hg7 mi
7:53 AM49 °FPartly cloudy.3 mph86%30.21 "Hg7 mi
6:53 AM49 °FPartly cloudy.3 mph86%30.21 "Hg8 mi
5:53 AM48 °FPassing clouds.No wind89%30.21 "Hg8 mi
4:53 AM48 °FPassing clouds.No wind86%30.21 "Hg8 mi
3:53 AM50 °FPassing clouds.No wind83%30.21 "Hg9 mi
2:53 AM50 °FPassing clouds.3 mph86%30.22 "Hg9 mi
1:53 AM51 °FPassing clouds.No wind83%30.22 "Hg9 mi
12:53 AM52 °FPassing clouds.No wind80%30.22 "Hg9 mi
11:53 PM
Sep 14
52 °FPassing clouds.No wind80%30.21 "Hg8 mi
10:53 PM53 °FClear.No wind74%30.22 "Hg8 mi
9:53 PM54 °FPassing clouds.No wind72%30.22 "Hg10 mi
Weather by CustomWeather, © 2014

See weather overviewHow to use our weather pages